FW2617 Weather Reports


time (UTC)temp
C
wind
direction
speed
KPH
gust
KPH
rain 1hr
cm
rain 24hr
cm
rain mn
cm
humidity
%
barometer
mb
20260509161804 27 331 4.8 9.7 0.00 0.00 0.00 62 1008.1
20260509160903 27 321 4.8 11.3 0.00 0.00 0.00 64 1008.2
20260509160004 26 301 3.2 9.7 0.00 0.00 0.00 65 1008.2
20260509155403 26 321 4.8 9.7 0.00 0.00 0.00 66 1008.2
20260509154504 26 325 8.0 16.1 0.00 0.00 0.00 67 1008.2
20260509153604 25 357 8.0 16.1 0.00 0.00 0.00 70 1008.0
20260509152704 25 3 9.7 17.7 0.00 0.00 0.00 71 1007.9
20260509151804 25 6 9.7 17.7 0.00 0.00 0.00 72 1007.9
20260509150903 24 4 8.0 17.7 0.00 0.00 0.00 73 1007.8
20260509150004 24 15 9.7 17.7 0.00 0.00 0.00 74 1007.9
20260509145404 23 2 8.0 17.7 0.00 0.00 0.00 75 1008.0
20260509144503 23 344 6.4 16.1 0.00 0.00 0.00 78 1008.1
20260509143625 23 341 6.4 14.5 0.00 0.00 0.00 79 1008.2
20260509142704 23 329 6.4 16.1 0.00 0.00 0.00 80 1008.2
20260509141804 23 327 9.7 16.1 0.00 0.00 0.00 80 1008.2
20260509140904 22 331 9.7 17.7 0.00 0.00 0.00 81 1008.1
20260509140005 22 324 8.0 17.7 0.00 0.00 0.00 82 1007.9
20260509135404 22 328 11.3 17.7 0.00 0.00 0.00 82 1007.9
20260509134504 22 332 9.7 17.7 0.00 0.00 0.00 83 1007.9
20260509133604 21 332 8.0 17.7 0.00 0.00 0.00 84 1007.9
20260509132704 21 333 11.3 22.5 0.00 0.00 0.00 84 1007.8
20260509131804 21 332 11.3 20.9 0.00 0.00 0.00 85 1007.7
20260509130904 21 336 9.7 19.3 0.00 0.00 0.00 86 1007.6
20260509130004 20 338 6.4 12.9 0.00 0.00 0.00 87 1007.5
20260509125404 20 330 6.4 14.5 0.00 0.00 0.00 87 1007.5
20260509124504 20 329 6.4 12.9 0.00 0.00 0.00 88 1007.4
20260509123604 19 323 4.8 8.0 0.00 0.00 0.00 89 1007.5
20260509122703 19 322 0.0 8.0 0.00 0.00 0.00 89 1007.5
20260509121804 20 0 0.0 0.0 0.00 0.00 0.00 90 1007.5
20260509120904 20 0 0.0 0.0 0.00 0.00 0.00 91 1007.4
20260509120004 20 304 0.0 1.6 0.00 0.00 0.00 91 1007.6
20260509115404 20 304 0.0 3.2 0.00 0.00 0.00 91 1007.5
20260509114504 21 304 0.0 1.6 0.00 0.00 0.00 91 1007.6
20260509113625 21 304 0.0 3.2 0.00 0.00 0.00 91 1007.7
20260509112704 21 305 1.6 6.4 0.00 0.00 0.00 92 1007.7
20260509111804 21 320 3.2 6.4 0.00 0.00 0.00 92 1007.7
20260509110925 21 329 4.8 9.7 0.00 0.00 0.00 92 1007.7
20260509110004 21 322 6.4 12.9 0.00 0.00 0.00 92 1007.4
20260509105424 21 320 6.4 12.9 0.00 0.00 0.00 92 1007.5
20260509104504 21 325 8.0 17.7 0.00 0.00 0.00 92 1007.4
20260509103604 21 328 11.3 20.9 0.00 0.00 0.00 92 1007.0
20260509102704 21 292 3.2 17.7 0.00 0.00 0.00 92 1006.8
20260509101804 21 176 8.0 16.1 0.00 0.00 0.00 92 1005.7
20260509100904 21 180 9.7 22.5 0.00 0.00 0.00 92 1005.2
20260509100004 21 181 8.0 24.1 0.00 0.00 0.00 93 1005.2
20260509095404 21 175 9.7 24.1 0.00 0.00 0.00 93 1005.0
20260509094504 20 165 11.3 27.4 0.00 0.00 0.00 93 1004.6
20260509093625 20 168 9.7 22.5 0.00 0.00 0.00 93 1004.8
20260509092704 20 170 8.0 17.7 0.00 0.00 0.00 92 1005.1
20260509091804 20 170 11.3 24.1 0.00 0.00 0.00 92 1005.3
20260509090925 20 169 9.7 24.1 0.00 0.00 0.00 92 1005.5
20260509090025 20 168 8.0 16.1 0.00 0.00 0.00 92 1005.6
20260509085404 20 167 6.4 14.5 0.00 0.00 0.00 92 1005.9
20260509084504 20 167 6.4 14.5 0.00 0.00 0.00 92 1006.2
20260509083604 20 167 8.0 16.1 0.00 0.00 0.00 92 1006.3
20260509082725 20 170 6.4 16.1 0.00 0.00 0.00 92 1006.8
20260509081803 20 168 8.0 19.3 0.00 0.00 0.00 92 1007.0
20260509080904 20 167 4.8 11.3 0.00 0.00 0.00 91 1007.6
20260509080003 21 178 4.8 12.9 0.00 0.00 0.00 91 1008.1
20260509075403 21 193 4.8 12.9 0.00 0.00 0.00 91 1008.5
20260509074504 21 257 6.4 12.9 0.00 0.00 0.00 91 1008.8
20260509073604 21 285 8.0 17.7 0.00 0.00 0.00 91 1009.8
20260509072725 21 288 4.8 11.3 0.00 0.00 0.00 91 1009.5
20260509071803 20 319 4.8 11.3 0.00 0.00 0.00 91 1009.3
20260509070904 20 317 3.2 8.0 0.00 0.00 0.00 91 1009.4
20260509070004 20 309 3.2 4.8 0.00 0.00 0.00 91 1009.3
20260509065404 20 323 3.2 8.0 0.00 0.00 0.00 91 1009.3
20260509064525 20 344 3.2 8.0 0.00 0.00 0.00 91 1009.6
20260509063604 20 345 0.0 4.8 0.00 0.00 0.00 90 1009.1
20260509062704 20 350 3.2 8.0 0.00 0.00 0.00 90 1009.0
20260509061804 20 185 1.6 6.4 0.00 0.00 0.00 90 1008.9
20260509060903 20 170 1.6 6.4 0.00 0.00 0.00 90 1008.7
20260509060004 20 170 1.6 6.4 0.00 0.00 0.00 90 1008.4
20260509055404 21 170 1.6 3.2 0.00 0.00 0.00 90 1008.1
20260509054504 21 170 1.6 3.2 0.00 0.00 0.00 90 1008.1
20260509053604 21 170 1.6 6.4 0.00 0.00 0.00 90 1008.1
20260509052725 21 171 3.2 8.0 0.00 0.00 0.00 90 1008.3
20260509051804 21 164 1.6 6.4 0.00 0.00 0.00 90 1008.0
20260509050925 21 166 1.6 6.4 0.00 0.00 0.00 89 1007.9
20260509050025 21 140 0.0 3.2 0.00 0.00 0.00 89 1008.3
20260509045403 21 0 0.0 0.0 0.00 0.00 0.00 88 1008.4
20260509044504 21 0 0.0 0.0 0.00 0.00 0.00 88 1008.5
20260509043625 21 148 0.0 4.8 0.00 0.00 0.00 88 1008.4
20260509042704 21 159 3.2 8.0 0.00 0.00 0.00 88 1008.1
20260509041804 21 167 4.8 9.7 0.00 0.00 0.00 88 1007.6
20260509040925 21 165 4.8 8.0 0.00 0.00 0.00 88 1007.6
20260509040025 22 164 3.2 9.7 0.00 0.00 0.00 88 1007.9
20260509035404 22 163 3.2 8.0 0.00 0.00 0.00 88 1007.8
20260509034525 22 162 1.6 9.7 0.00 0.00 0.00 87 1007.8
20260509033604 22 168 3.2 9.7 0.00 0.00 0.00 87 1007.5
20260509032704 22 169 4.8 11.3 0.00 0.00 0.00 86 1007.4
20260509031803 22 167 4.8 11.3 0.00 0.00 0.00 86 1007.3
20260509030904 22 166 6.4 12.9 0.00 0.00 0.00 86 1007.1
20260509030004 22 168 4.8 12.9 0.00 0.00 0.00 85 1007.1
20260509025404 22 167 4.8 9.7 0.00 0.00 0.00 85 1007.2
20260509024504 22 166 1.6 8.0 0.00 0.00 0.00 85 1007.2
20260509023625 22 173 3.2 9.7 0.00 0.00 0.00 84 1007.0
20260509022704 22 194 1.6 8.0 0.00 0.00 0.00 84 1006.9
20260509021804 22 175 1.6 6.4 0.00 0.00 0.00 84 1006.8
20260509020904 23 166 3.2 8.0 0.00 0.00 0.00 84 1006.8
20260509020004 23 164 3.2 9.7 0.00 0.00 0.00 84 1006.7
20260509015425 23 167 3.2 9.7 0.00 0.00 0.00 83 1006.5
20260509014504 23 163 1.6 8.0 0.00 0.00 0.00 83 1006.5
20260509013603 23 169 3.2 6.4 0.00 0.00 0.00 83 1006.4
20260509012704 23 163 4.8 9.7 0.00 0.00 0.00 83 1006.4
20260509011825 23 165 3.2 11.3 0.00 0.00 0.00 82 1006.3
20260509010904 23 161 1.6 6.4 0.00 0.00 0.00 82 1006.2
20260509010004 23 167 4.8 11.3 0.00 0.00 0.00 82 1006.1
20260509005425 23 163 4.8 11.3 0.00 0.00 0.00 81 1005.9
20260509004504 23 167 3.2 8.0 0.00 0.00 0.00 81 1005.8
20260509003604 23 164 4.8 11.3 0.00 0.00 0.00 80 1006.0
20260509002704 23 183 4.8 11.3 0.00 0.00 0.00 80 1006.1
20260509001803 24 187 3.2 9.7 0.00 0.00 0.00 79 1006.1
20260509000904 24 175 4.8 12.9 0.00 0.00 0.00 78 1006.0
20260509000004 24 165 4.8 12.9 0.00 0.00 0.00 78 1005.9
20260508235424 24 166 4.8 11.3 0.00 0.00 0.00 78 1005.9
20260508234504 24 162 4.8 12.9 0.00 0.00 0.00 78 1005.8
20260508233625 24 163 4.8 12.9 0.00 0.00 0.00 78 1005.7
20260508232704 24 180 8.0 16.1 0.00 0.00 0.00 78 1005.9
20260508231803 24 169 8.0 17.7 0.00 0.00 0.00 77 1005.9
20260508230904 24 182 6.4 17.7 0.00 0.00 0.00 77 1005.9
20260508230004 24 169 4.8 12.9 0.00 0.00 0.00 77 1005.8
20260508225425 24 162 6.4 14.5 0.00 0.00 0.00 78 1006.0
20260508224504 24 166 6.4 14.5 0.00 0.00 0.00 78 1006.1
20260508223625 23 166 6.4 19.3 0.00 0.00 0.00 77 1006.2
20260508222703 23 161 8.0 16.1 0.00 0.00 0.00 77 1006.3
20260508221804 23 168 6.4 14.5 0.00 0.00 0.00 77 1006.3
20260508220904 23 164 3.2 9.7 0.00 0.00 0.00 77 1006.5
20260508220004 23 156 3.2 9.7 0.00 0.00 0.00 77 1006.8
20260508215424 23 145 3.2 9.7 0.00 0.00 0.00 77 1006.9
20260508214503 23 159 4.8 12.9 0.00 0.00 0.00 77 1006.9
20260508213603 23 167 4.8 9.7 0.00 0.00 0.00 76 1007.1
20260508212704 23 174 3.2 11.3 0.00 0.00 0.00 75 1007.2
20260508211804 23 169 4.8 17.7 0.00 0.00 0.00 75 1007.3
20260508210903 23 152 6.4 17.7 0.00 0.00 0.00 75 1007.0
20260508210004 22 149 12.9 22.5 0.00 0.00 0.00 77 1007.0
20260508205404 22 144 11.3 24.1 0.00 0.00 0.00 77 1006.8
20260508204504 22 144 8.0 20.9 0.00 0.00 0.00 77 1007.2
20260508203604 21 150 6.4 19.3 0.00 0.00 0.00 79 1007.4
20260508202724 21 155 4.8 14.5 0.00 0.00 0.00 78 1007.7
20260508201804 21 163 4.8 11.3 0.00 0.00 0.00 78 1008.4
20260508200903 21 172 4.8 11.3 0.00 0.00 0.00 78 1008.7
20260508200004 21 205 4.8 12.9 0.00 0.00 0.00 77 1009.3
20260508195403 21 183 4.8 14.5 0.00 0.00 0.00 77 1009.3
20260508194524 21 192 3.2 12.9 0.00 0.00 0.00 76 1008.9
20260508193603 22 204 4.8 11.3 0.00 0.00 0.00 74 1009.2
20260508192703 22 165 4.8 9.7 0.00 0.00 0.00 74 1008.8
20260508191804 22 159 6.4 14.5 0.00 0.00 0.00 74 1008.9
20260508190903 22 172 8.0 16.1 0.00 0.00 0.00 74 1009.1
20260508190003 22 171 6.4 16.1 0.00 0.00 0.00 74 1009.0
20260508185425 21 177 4.8 16.1 0.00 0.00 0.00 75 1009.2
20260508184504 21 164 4.8 12.9 0.00 0.00 0.00 75 1009.5
20260508183603 21 154 4.8 17.7 0.00 0.00 0.00 74 1009.6
20260508182725 21 160 6.4 14.5 0.00 0.00 0.00 74 1009.8
20260508181804 21 161 6.4 14.5 0.00 0.00 0.00 74 1010.0
20260508180904 21 162 6.4 17.7 0.00 0.00 0.00 74 1010.2
20260508180025 21 163 6.4 20.9 0.00 0.00 0.00 73 1010.3
20260508175403 21 158 4.8 20.9 0.00 0.00 0.00 71 1010.3
20260508174524 22 153 6.4 16.1 0.00 0.00 0.00 70 1010.2
20260508173603 22 131 3.2 11.3 0.00 0.00 0.00 69 1010.1
20260508172704 22 134 3.2 9.7 0.00 0.00 0.00 73 1010.0
20260508171803 21 150 4.8 11.3 0.00 0.00 0.00 71 1010.5
20260508170904 21 147 6.4 16.1 0.00 0.00 0.00 71 1010.6
20260508170004 21 159 6.4 14.5 0.00 0.00 0.00 72 1010.8
20260508165403 21 158 4.8 14.5 0.00 0.00 0.00 71 1010.9
20260508164524 21 153 6.4 16.1 0.00 0.00 0.00 72 1011.0
20260508163603 22 139 4.8 9.7 0.00 0.00 0.00 71 1011.1
20260508162703 22 147 3.2 9.7 0.00 0.00 0.00 71 1011.0